sat.trackr.live / text

‹ back to catalog

STARLINK-31568

NORAD 59412 · 2024-064Q

PAYLOAD ACTIVE UNKNOWN

§ Identity

Operator
Country
US
Launch date
2024-04-05
Launch site
AFETR
Launch vehicle
Mass (kg)
RCS (m²)

Purposes: comms

External: N2YO · Heavens-Above · Gunter

§ Orbital elements

Epoch: 2026-05-24T22:16:05.058048Z

Period
94.27 min
Inclination
43.0027°
Eccentricity
0.0001399
Mean motion
15.27568888 rev/d
Perigee alt
482.1 km
Apogee alt
484.0 km
Semi-major
6,861.2 km
B*
-2.2282e-5
RAAN
345.7695°
Arg perigee
273.2441°
Mean anomaly
86.8250°
Rev number
12,088

§ Raw data

STARLINK-315681 59412U 24064Q   26144.92783632 -.00000875  00000+0 -22282-4 0  99952 59412  43.0027 345.7695 0001399 273.2441  86.8250 15.27568888120889

JSON: /api/v1/satellites/59412 · /tle

For live sub-satellite position, see the globe view (requires WebGL).

§ Visibility from observer

Set your observer location to see the next 7 days of passes ≥ 10°. The values pass through the URL so the page stays shareable.

No JS? Fill the form by hand. The geolocation button needs JavaScript.